Location: Middle Guinea
(11.0000°N, 12.5000°W)
Time: 16:04:45
(UTC+00:00)

Daily predictions for brighter satellites

Satellite Brightness Start Highest point End
(mag) Time Altitude Azimuth Time Altitude Azimuth Time Altitude Azimuth
Cosmos 1745 Rocket 4.3 19:02:42 10° N 19:08:54 79° W 19:15:12 10° S
Iridium 2 4.0 19:05:53 10° S 19:09:38 73° W 19:13:23 10° N
Cosmos 1975 2.8 19:09:03 10° S 19:12:58 62° E 19:16:53 10° NNE
EXPRESS MD2 2.5 19:09:36 10° NW 19:13:28 89° SW 19:15:52 10° SE
H-2A R/B 4.4 19:12:11 10° SSW 19:15:35 37° W 19:18:59 10° NNW
Cosmos 2322 Rocket 3.1 19:12:18 10° NNE 19:16:55 26° ENE 19:21:32 10° SE
YAOGAN 6 3.0 19:15:24 10° SSE 19:18:45 40° ENE 19:22:09 10° N
Cosmos 1743 3.5 19:17:08 10° SSW 19:20:52 56° W 19:24:36 10° N
Cosmos 1461 3.8 19:19:26 10° SW 19:23:31 53° WNW 19:27:29 10° N
Mugunghwa Rocket 4.0 19:17:32 10° WSW 19:23:52 90° NNW 19:30:18 10° ENE
Orbus 7S 3.9 19:16:39 10° WNW 19:23:54 68° SSW 19:26:49 10° SE
SWIFT 3.6 19:21:13 10° NW 19:24:56 30° N 19:28:24 11° ENE
APEX 2.9 19:24:39 10° N 19:27:16 36° ENE 19:29:46 10° SE
Okean 2 4.2 19:24:54 10° NNE 19:28:30 30° E 19:32:06 10° SSE
Meteor 1-23 Rocket 4.4 19:23:33 10° N 19:29:05 78° W 19:34:39 10° S
Cosmos 1975 Rocket 3.0 19:25:05 10° N 19:29:30 69° E 19:33:54 10° S
Cosmos 494 Rocket 4.3 19:27:24 10° N 19:32:23 45° ENE 19:37:23 10° SSE
Okean 2 Rocket 4.1 19:29:24 10° SSW 19:33:41 51° W 19:38:00 10° N
Okean 1 Rocket 3.8 19:32:35 10° SSE 19:36:18 28° E 19:39:59 10° NNE
CZ-4 R/B 1.5 19:33:54 10° S 19:37:43 72° WSW 19:41:33 10° NNW
Cosmos 2219 3.9 19:33:15 10° SSE 19:38:12 31° ESE 19:43:11 10° NE
Cosmos 2227 Rocket 3.8 19:39:15 10° SE 19:41:01 14° ESE 19:41:01 14° ESE
USA 32 4.4 19:38:12 10° NNE 19:43:06 41° E 19:47:59 10° SSE
Meteor 2-9 Rocket 4.3 19:38:20 10° S 19:44:12 89° E 19:50:01 10° N
Ariane Rocket 3.4 19:44:00 10° SE 19:48:39 38° ENE 19:53:18 10° N
Cosmos 2360 Rocket 3.2 19:45:16 10° NNE 19:49:40 23° ENE 19:50:30 22° E
GPS 2-18 Rocket1 3.0 19:46:50 10° WNW 19:50:34 75° SSW 19:52:09 31° ESE
Cosmos 2297 Rocket 3.3 19:49:36 10° SSE 19:53:09 23° ESE 19:53:09 23° ESE
Cosmos 1269 Rocket 3.9 19:48:45 10° N 19:54:02 76° ENE 19:59:20 10° SSE
GP-B 3.2 19:50:26 10° NNE 19:54:43 50° E 19:59:01 10° SSE
ASTEX 1 3.9 19:50:58 10° NNE 19:55:23 35° E 19:59:49 10° SSE
Nadezhda 1 Rocket 3.8 19:51:36 10° S 19:57:41 70° E 20:03:41 10° N
OAO 1 4.5 19:52:51 10° NW 19:58:20 74° NE 20:01:04 30° ESE
SL-24 R/B 4.4 19:57:15 10° SSE 20:02:13 71° E 20:07:38 10° N
ISS -3.2 20:02:39 10° SW 20:05:54 56° NW 20:07:18 29° NNE
SL-16 R/B 2.4 20:00:20 10° NNW 20:05:59 75° WSW 20:11:37 10° S
YAOGAN 1 3.9 20:02:32 10° S 20:06:35 41° W 20:10:40 10° NNW
GPS 2-14 Rocket1 4.1 20:08:38 10° WNW 20:11:50 26° N 20:12:43 23° NNE
CZ-2C R/B 4.0 20:08:01 10° N 20:12:22 63° WNW 20:16:45 10° SSW
Cosmos 1441 Rocket 4.0 20:13:36 10° SSW 20:17:25 52° W 20:21:11 10° N
USA 267 3.8 20:17:32 35° SE 20:17:35 35° SE 20:23:23 10° S
Cosmos 1939 Rocket 2.8 20:15:29 24° S 20:17:45 76° W 20:21:37 10° NNW
Centaur D-1AR AC-48 1.9 20:10:16 10° WNW 20:18:40 75° NNE 20:19:27 57° E
MOS 1 4.4 20:18:28 46° ESE 20:19:22 50° ENE 20:24:51 10° N
Cosmos 1536 Rocket 3.3 20:15:20 10° N 20:19:29 70° ENE 20:19:29 70° ENE
Cosmos 1544 4.4 20:21:14 10° SSW 20:24:35 38° W 20:27:56 10° NNW
Cosmos 1025 Rocket 4.1 20:25:51 10° N 20:28:15 33° N 20:28:15 33° N
IUS-18 SRM-1 2.8 20:21:55 10° WSW 20:31:19 66° NNW 20:31:34 64° N
Cosmos 1371 Rocket 3.9 20:28:03 10° SSW 20:33:16 90° ESE 20:38:33 10° NNE
ASC 2 Rocket 3.6 20:27:03 10° WSW 20:34:09 65° SSE 20:34:15 65° SSE
GPS 2-17 Rocket1 4.0 20:32:24 10° W 20:36:07 36° NNW 20:36:07 36° NNW
Lacrosse 5 rocket 3.2 20:37:37 10° SW 20:39:03 22° SW 20:39:03 22° SW
Ariane H10+ 4.0 20:37:02 10° WSW 20:41:46 61° S 20:45:55 43° ESE
Aurora 2 Rocket 4.0 20:49:18 10° WSW 20:58:41 65° NNW 20:59:43 59° NNE
Cosmos 2322 Rocket 4.4 20:56:27 10° NW 21:00:40 22° WSW 21:04:53 10° SSW
Lacrosse 4 Rocket 3.7 20:58:08 10° NW 20:59:53 21° WNW 20:59:53 21° WNW
ADEOS Rocket 4.3 21:09:28 10° N 21:16:42 48° WNW 21:24:06 10° SSW
Cosmos 2227 Rocket 4.3 21:21:10 10° SW 21:23:02 20° SW 21:23:02 20° SW
Cosmos 2360 Rocket 4.2 21:28:51 10° NW 21:32:21 24° W 21:32:21 24° W
Cosmos 2297 Rocket 4.5 21:33:11 10° SW 21:35:12 18° WSW 21:35:12 18° WSW
